This is the latest recevied weather packets stored in our database for station/object F4GSP-4. If no packets are shown the sender has not sent any weather packets the latest 10 day(s).
| Time | Temp. | Humidity | Pressure | Rain* | Wind** | Luminosity | Snow |
|---|---|---|---|---|---|---|---|
| 1777452658 | 16.67° C | 51% | 1025.9 hPa | - | - | - | - |
| 1777451758 | 16.11° C | 52% | 1026 hPa | - | - | - | - |
| 1777450858 | 15° C | 52% | 1026.1 hPa | - | - | - | - |
| 1777449958 | 13.89° C | 53% | 1026.1 hPa | - | - | - | - |
| 1777449058 | 12.78° C | 52% | 1026.2 hPa | - | - | - | - |
| 1777448158 | 12.22° C | 53% | 1026.2 hPa | - | - | - | - |
| 1777447258 | 11.11° C | 53% | 1026.4 hPa | - | - | - | - |
| 1777446357 | 10° C | 53% | 1026.5 hPa | - | - | - | - |
| 1777445457 | 9.44° C | 53% | 1026.6 hPa | - | - | - | - |
| 1777444557 | 8.33° C | 53% | 1026.7 hPa | - | - | - | - |
| 1777443657 | 7.78° C | 53% | 1026.7 hPa | - | - | - | - |
| 1777442757 | 6.67° C | 53% | 1026.6 hPa | - | - | - | - |
| 1777441856 | 6.11° C | 52% | 1026.7 hPa | - | - | - | - |
| 1777440956 | 5.56° C | 52% | 1026.5 hPa | - | - | - | - |
| 1777440056 | 5° C | 52% | 1026.6 hPa | - | - | - | - |
| 1777439156 | 5° C | 51% | 1026.6 hPa | - | - | - | - |
| 1777438256 | 5° C | 51% | 1026.5 hPa | - | - | - | - |
| 1777437356 | 5° C | 51% | 1026.4 hPa | - | - | - | - |
| 1777436455 | 5° C | 51% | 1026.4 hPa | - | - | - | - |
| 1777435555 | 5° C | 51% | 1026.4 hPa | - | - | - | - |
| 1777434655 | 5° C | 51% | 1026.5 hPa | - | - | - | - |
| 1777433755 | 5.56° C | 51% | 1026.4 hPa | - | - | - | - |
| 1777432855 | 5.56° C | 51% | 1026.4 hPa | - | - | - | - |
| 1777431955 | 6.11° C | 50% | 1026.4 hPa | - | - | - | - |
| 1777431054 | 6.11° C | 50% | 1026.6 hPa | - | - | - | - |
* Rain since midnight (hover to see other rain measurements)
** Current wind speed in m/s (hover to see current wind gust speed)